Location: Burgwalden
(48.2830°N, 10.7576°E)
Time: 21:16:40
(UTC+00:00)

Cosmos 2315 Rocket - Pass Details

Date: 26 September 2023
Orbit: 965 x 1002 km, 82.9° (Epoch: 08 December)

Event Time Altitude Azimuth Distance (km) Brightness Sun altitude
Rises 03:37:36 0° 347° (NNW) 3,725 7.1 -15.8°
Reaches altitude 10° 03:40:11 10° 343° (NNW) 2,776 6.4 -15.4°
Maximum altitude 03:46:20 53° 269° (W) 1,215 4.1 -14.4°
Drops below altitude 10° 03:52:29 10° 194° (SSW) 2,768 6.1 -13.4°
Sets 03:55:03 0° 190° (S) 3,713 6.8 -13.0°
